Location: Aulnat
(45.5333°N, 2.6167°E)
Time: 15:36:55
(UTC+00:00)

Daily predictions for brighter satellites

Satellite Brightness Start Highest point End
(mag) Time Altitude Azimuth Time Altitude Azimuth Time Altitude Azimuth
Cosmos 2082 4.2 19:53:35 10° NNW 19:59:02 48° ENE 20:04:26 10° SE
Meteor 1-11 Rocket 3.9 19:54:32 10° N 20:00:31 69° ENE 20:06:25 10° SSE
Cosmos 2263 Rocket 3.4 19:57:09 10° N 20:01:57 28° NE 20:06:41 10° ESE
Cosmos 1470 Rocket 3.6 19:58:32 10° N 20:02:50 62° E 20:07:06 10° SSE
Cosmos 1656 4.4 19:57:32 10° SW 20:03:00 58° WNW 20:08:27 10° NNE
Ariane Rocket 3.3 20:01:07 10° SE 20:06:01 53° ENE 20:10:59 10° N
Cosmos 1743 3.1 20:02:23 10° N 20:06:02 44° ENE 20:09:39 10° SSE
BREEZE-M DEB (TANK) 2.9 20:07:20 10° W 20:10:33 50° NNW 20:12:40 10° ENE
SPOT 5 4.4 20:07:07 10° ESE 20:11:20 25° ENE 20:15:27 10° N
IRAS Rocket 4.4 20:07:02 10° NNE 20:12:36 58° ESE 20:18:08 10° S
Terra 3.7 20:10:05 10° E 20:13:05 17° ENE 20:16:06 10° NNE
Resurs 01 Rocket 1.6 20:10:20 10° SSE 20:14:43 79° ENE 20:19:09 10° N
Aureole 1 Rocket 2.1 20:12:56 10° S 20:16:08 63° ESE 20:19:05 10° NNE
Cosmos 1515 Rocket 3.6 20:12:41 10° S 20:17:00 66° E 20:21:23 10° NNE
Landsat 7 4.3 20:15:34 10° S 20:20:13 61° W 20:24:55 10° NNW
Cosmos 2227 Rocket 2.7 20:14:40 10° NNW 20:20:15 60° WSW 20:25:48 10° S
Cosmos 921 Rocket 3.5 20:17:08 10° N 20:21:34 51° ENE 20:25:38 12° SE
PSLV R/B 4.0 20:18:58 10° NNE 20:23:01 80° WNW 20:27:03 10° SSW
Cosmos 1980 Rocket 2.3 20:23:21 10° S 20:28:51 58° ESE 20:34:24 10° NNE
CARTOSAT-1 3.8 20:26:14 11° SSE 20:30:12 53° ENE 20:34:25 10° N
Cosmos 1869 Rocket 4.4 20:26:56 10° N 20:31:06 37° ENE 20:34:33 14° SE
Cosmos 2228 Rocket 4.0 20:29:01 11° SSE 20:32:46 32° E 20:36:48 10° NNE
Cosmos 1464 Rocket 4.0 20:27:32 10° S 20:33:44 80° E 20:39:54 10° N
ARGOS Delta rocket 4.3 20:31:21 10° N 20:36:53 83° WNW 20:42:16 10° SSW
Cosmos 2344 3.5 20:29:24 10° SSW 20:36:55 73° ESE 20:44:30 10° NE
Cosmos 2322 Rocket 3.9 20:36:17 12° ESE 20:37:57 13° E 20:40:24 10° ENE
ISS -2.9 20:35:05 10° NW 20:38:19 45° NNE 20:41:27 11° E
Cosmos 2369 3.7 20:32:53 10° SSW 20:38:30 79° ESE 20:44:12 10° NNE
Cosmos 1354 Rocket 4.1 20:34:14 10° S 20:39:24 62° ESE 20:44:39 10° NNE
Spot 2 Rocket 4.1 20:35:42 14° SE 20:39:45 43° ENE 20:44:31 10° N
SPOT 3 Rocket 3.6 20:36:10 12° SSE 20:40:53 69° ENE 20:46:01 10° N
Cosmos 773 Rocket 4.2 20:36:02 10° NNW 20:41:13 59° ENE 20:45:19 16° SE
ATLAS 2AS CENTAUR R/B 3.1 20:34:01 10° SSW 20:41:36 57° ESE 20:48:59 10° NE
Cosmos 1536 3.4 20:37:41 10° NNW 20:41:39 58° W 20:45:36 10° S
Okean 1 3.5 20:40:11 10° S 20:44:00 54° E 20:47:56 10° NNE
Meteor 1-19 Rocket 4.2 20:40:45 10° S 20:46:04 58° E 20:51:22 10° NNE
NOSS 3-4 (A) 4.2 20:40:53 10° WSW 20:46:29 53° NW 20:52:35 10° NNE
NOSS 3-4 (C) 4.2 20:40:55 10° WSW 20:46:32 54° NW 20:52:40 10° NNE
H-2A R/B 3.6 20:42:48 10° N 20:46:33 36° WNW 20:50:19 10° SW
Cosmos 1092 Rocket 4.4 20:41:30 10° N 20:47:27 47° ENE 20:52:05 16° SE
RESURS DK-1 2.6 20:43:47 10° S 20:47:43 46° ESE 20:51:41 10° NE
Cosmos 1697 Rocket 3.5 20:42:14 10° SW 20:47:46 55° WNW 20:53:21 10° NNE
USA 245 4.5 20:42:54 12° SSE 20:48:19 78° ENE 20:54:44 10° N
Nadezhda 4 Rocket 4.0 20:42:06 10° N 20:48:22 81° E 20:54:08 12° S
SL-4 R/B 3.1 20:45:06 10° WNW 20:49:17 36° SW 20:52:09 17° SSE
Meteor 2-14 Rocket 4.4 20:45:13 10° N 20:51:19 73° E 20:56:34 14° SSE
ATLAS CENTAUR R/B 4.2 20:53:40 10° N 20:56:13 14° NNE 20:58:45 10° ENE
ARIANE 5 R/B 3.8 20:53:39 17° ESE 20:56:22 31° ENE 21:00:19 10° N
Cosmos 2297 Rocket 4.3 20:52:30 10° NW 20:56:35 21° W 21:00:39 10° SSW
MetOp-B 4.4 20:52:35 11° S 20:57:45 70° WSW 21:03:07 10° NNW
Cosmos 44 Rocket 3.8 20:53:40 10° NNW 20:58:14 48° NE 21:01:28 18° ESE
Cosmos 1184 Rocket 4.2 21:00:37 10° SW 21:03:24 34° WNW 21:06:13 10° N
Cosmos 158 Rocket 4.2 21:01:00 10° NNW 21:06:04 57° ENE 21:09:24 22° SE
ATLAS 3B R/B 3.5 21:00:06 10° NNW 21:07:13 51° NE 21:13:24 15° ESE
Meteor 2-9 Rocket 4.3 21:01:51 10° NNW 21:07:39 87° W 21:12:06 17° S
NOSS 2-1 (E) 3.9 21:08:10 26° ESE 21:08:10 26° ESE 21:10:41 10° ENE
Cosmos 1975 3.1 21:07:34 10° N 21:11:34 53° ENE 21:13:33 27° SE
Timation 2 Rocket 4.4 21:05:20 10° NNW 21:11:52 66° WSW 21:17:06 17° S
USA 81 4.5 21:09:01 21° SSE 21:12:09 45° E 21:17:08 10° NNE
Cosmos 2026 Rocket 4.1 21:06:40 10° N 21:12:47 63° E 21:17:00 21° SSE
Cosmos 389 Rocket 4.4 21:09:52 10° NW 21:12:50 26° W 21:15:48 10° SSW
ERS-1 Rocket 3.0 21:12:32 22° SSE 21:15:50 76° ENE 21:20:54 10° N
SL-16 R/B 2.7 21:13:28 20° SSE 21:16:43 38° ESE 21:21:55 10° NE
CZ-4B R/B 4.2 21:14:58 10° NNW 21:17:08 17° WNW 21:19:16 10° WSW
Meteor 1-4 Rocket 4.3 21:16:16 10° NNE 21:18:44 18° ENE 21:19:36 16° E
Cosmos 1538 Rocket 4.3 21:16:16 10° NNW 21:21:26 55° ENE 21:24:18 25° SE
Helios 1A Rocket 3.1 21:19:01 22° S 21:21:30 65° WSW 21:25:29 10° NNW
GENESIS II 4.3 21:20:46 22° S 21:22:58 50° ESE 21:26:46 10° NE
CZ-2C R/B 3.7 21:19:40 10° NNE 21:24:27 73° ESE 21:27:47 20° S
Cosmos 1733 Rocket 3.5 21:21:32 10° N 21:25:51 47° ENE 21:27:44 29° SE
Meteor 2-8 Rocket 4.5 21:25:01 21° S 21:29:14 65° E 21:35:15 10° NNE
OE (NEXTSAT) 4.1 21:26:43 10° W 21:30:02 86° N 21:32:08 21° E
SJ 16-02 2.2 21:27:17 10° SW 21:31:31 50° WNW 21:35:49 10° N
Meteor 1-18 Rocket 4.2 21:26:49 14° S 21:31:52 87° W 21:37:32 10° N
SAR-Lupe-4 4.3 21:29:37 10° NNE 21:32:58 35° E 21:33:21 34° ESE
Cosmos 1627 Rocket 4.5 21:27:41 10° N 21:33:57 90° SW 21:38:05 23° S
Cosmos 2278 4.0 21:31:37 10° SW 21:37:15 69° WNW 21:42:56 10° NNE
Cosmos 2292 Rocket 2.9 21:34:31 10° NNW 21:37:28 59° W 21:38:15 40° SSW
ASTRO F (AKARI) 4.4 21:37:45 42° SSW 21:38:34 62° WSW 21:41:43 10° NNW
Cosmos 1862 Rocket 3.8 21:37:31 33° SSE 21:39:09 52° E 21:43:31 10° NNE
Cosmos 2360 Rocket 3.1 21:40:42 26° SE 21:41:53 28° ESE 21:46:37 10° NE
BREEZE M DEB (TANK) 4.2 21:37:56 10° WNW 21:42:32 67° SSW 21:55:47 17° SE
Cosmos 1726 4.1 21:42:12 10° NNE 21:44:33 16° ENE 21:45:09 16° E
Meteor 2-15 4.4 21:41:00 23° S 21:44:58 78° E 21:51:03 10° NNE
Cosmos 2263 Rocket 2.6 21:40:45 10° NW 21:46:10 52° WSW 21:49:11 25° S
NOSS 2-1 (C) 2.6 21:46:44 29° SW 21:48:16 90° E 21:51:29 10° NE
SPOT 5 3.7 21:45:43 21° SSW 21:49:06 49° W 21:54:06 10° NNW
Terra 2.0 21:47:56 29° S 21:50:19 66° WSW 21:55:05 10° NNW
Cosmos 1441 Rocket 3.3 21:51:04 47° SE 21:51:34 52° E 21:55:12 10° NNE
Resurs 01 Rocket 4.4 21:50:35 10° WSW 21:51:46 11° W 21:52:58 10° WNW
Cosmos 1346 Rocket 2.9 21:50:23 31° SSW 21:52:13 76° W 21:56:15 10° N
SAR-Lupe-1 3.9 21:50:27 10° NNE 21:54:03 75° ESE 21:54:47 53° S
Cosmos 2279 Rocket 3.9 21:53:29 27° S 21:56:59 75° E 22:03:13 10° NNE
NOSS 2-1 (D) 3.0 21:56:58 24° SW 21:58:44 68° NW 22:01:56 10° NE
Cosmos 990 Rocket 4.1 21:57:54 35° SSE 21:59:49 55° ESE 22:04:57 10° NNE
Cosmos 1680 Rocket 4.3 21:56:08 10° N 22:01:10 41° ENE 22:03:26 27° ESE
USA 215 3.7 21:55:34 10° ENE 22:01:34 37° SE 22:03:42 30° SSE
Iridium 2 3.5 21:59:59 10° N 22:03:45 80° E 22:04:23 59° SSE
Cosmos 1066 Rocket 4.2 22:05:06 34° S 22:07:37 68° E 22:13:15 10° NNE
Cosmos 1818 4.4 22:03:57 10° NNW 22:09:11 44° NE 22:12:08 23° ESE
Iridium 4 Rocket 4.0 22:08:12 10° NNE 22:12:34 41° E 22:13:44 35° ESE
Cosmos 1898 Rocket 3.8 22:11:50 40° SSE 22:13:11 49° ESE 22:18:19 10° NNE
Cosmos 1980 Rocket 4.3 22:08:32 10° WSW 22:13:14 26° NW 22:18:00 10° N
SL-24 R/B - RUBIN 2 4.2 22:10:18 10° NW 22:14:30 44° WSW 22:15:32 37° SSW
ISS -2.6 22:11:57 10° WNW 22:14:21 32° WSW 22:14:21 32° WSW
Okean 1-7 3.3 22:17:25 45° ESE 22:17:59 48° E 22:22:12 10° NNE
Iridium 51 4.0 22:21:01 64° E 22:21:01 64° E 22:24:28 10° N
Cosmos 2322 Rocket 2.1 22:18:02 28° SSW 22:21:06 87° ESE 22:26:45 10° NNE
Cosmos 2180 Rocket 4.4 22:21:19 33° S 22:24:17 89° W 22:30:29 10° N
Okean 3 3.9 22:25:02 42° ESE 22:25:16 43° E 22:29:18 10° NNE
Cosmos 1844 Rocket 2.7 22:20:19 10° NNW 22:25:56 73° ENE 22:27:57 40° SE
Cosmos 2333 Rocket 2.8 22:25:17 34° ESE 22:26:03 36° ESE 22:31:10 10° NE
Cosmos 1805 3.2 22:24:06 10° NNW 22:28:00 72° W 22:28:28 63° SSW
BREEZE-M DEB (TANK) 2.6 22:29:19 10° WNW 22:31:52 53° SSW 22:31:52 53° SSW
H-2A R/B 4.4 22:28:48 10° NNE 22:32:20 33° E 22:32:20 33° E
ARIANE 5 R/B 4.1 22:31:11 23° SW 22:32:46 29° W 22:36:43 10° NW
ATLAS 2AS CENTAUR R/B 4.0 22:25:27 10° WSW 22:32:50 45° NW 22:39:59 10° NNE
Meteor 1-23 Rocket 4.4 22:34:01 42° SSE 22:35:46 59° E 22:41:30 10° NNE
ATLAS CENTAUR R/B 2.3 22:31:25 10° NNW 22:36:11 50° NE 22:37:49 34° E
USA 267 4.0 22:31:01 10° E 22:37:16 49° NNE 22:43:31 10° NW
Cosmos 1733 3.7 22:37:26 10° NNW 22:41:05 47° W 22:41:23 46° WSW
Cosmos 1766 3.1 22:39:14 10° N 22:43:11 87° E 22:43:23 81° SSE
Cosmos 2219 Rocket 2.7 22:44:47 37° ESE 22:45:23 38° ESE 22:50:31 10° NE
Cosmos 1703 Rocket 3.5 22:48:15 62° SSW 22:48:59 85° W 22:53:26 10° N
Cosmos 1844 3.7 22:43:49 10° NNW 22:49:40 88° WSW 22:51:27 47° SSE
Cosmos 372 Rocket 4.1 22:51:17 50° SE 22:51:59 55° ESE 22:57:01 10° NNE
Meteor 1-4 Rocket 3.9 22:50:34 10° NNW 22:53:35 28° W 22:53:35 28° W
ATLAS 3B R/B 3.4 22:51:00 10° NW 22:57:59 46° WSW 23:00:39 34° SSW
Cosmos 1707 3.8 23:00:36 34° ENE 23:00:36 34° ENE 23:03:46 10° NNE
SL-16 R/B 3.5 22:55:35 10° WSW 23:00:49 37° NW 23:06:05 10° NNE
Cosmos 1655 Rocket 4.1 22:55:46 10° NNW 23:01:57 67° W 23:04:10 41° SSW
Cosmos 1782 Rocket 3.4 23:00:04 10° N 23:04:27 83° W 23:04:49 73° SSW
ERS-2 2.7 23:03:55 10° NNE 23:06:52 47° ENE 23:06:52 47° ENE
CZ-4C R/B 3.3 23:01:13 10° NW 23:08:17 61° NE 23:14:17 20° ESE
NOSS 3-1 (C) 4.1 23:01:36 10° NW 23:09:03 80° NE 23:14:03 29° SE
Gblst 52 Del rocket 4.4 23:07:27 10° WSW 23:13:57 77° NNW 23:19:42 10° ENE
Cosmos 2237 Rocket 3.9 23:14:56 18° ESE 23:15:22 18° E 23:19:02 10° ENE
COSMOS 2428 2.9 23:17:53 46° SE 23:18:43 50° ESE 23:24:12 10° NE
Cosmos 1470 2.7 23:15:21 10° N 23:19:01 79° N 23:19:01 79° N
Cosmos 1726 3.2 23:16:18 10° NNW 23:19:26 35° W 23:19:26 35° W
Cosmos 1300 Rocket 3.4 23:16:13 10° N 23:20:35 78° E 23:20:51 74° ESE
Cosmos 2242 Rocket 4.2 23:21:24 44° WSW 23:22:16 51° WNW 23:26:44 10° N
ALOS 2 2.4 23:22:01 74° SSW 23:22:19 79° WSW 23:26:44 10° NNW
Cosmos 2151 Rocket 4.4 23:19:15 10° N 23:23:22 38° ENE 23:23:57 36° E
Cosmos 1937 Rocket 3.9 23:22:46 37° SW 23:24:39 58° WNW 23:29:53 10° NNE
Cosmos 2360 Rocket 2.9 23:22:25 24° WSW 23:25:36 48° WNW 23:31:06 10° NNE
Cosmos 1242 Rocket 3.3 23:22:58 10° N 23:26:07 45° NE 23:26:07 45° NE
Okean 2 Rocket 3.6 23:23:06 10° N 23:27:31 49° ENE 23:28:05 46° ESE
Cosmos 405 Rocket 4.4 23:28:20 23° ENE 23:28:20 23° ENE 23:30:53 10° NE
In-Cosmos 22 4.2 23:29:31 52° SSE 23:30:40 66° E 23:36:07 10° NNE
Cosmos 2333 4.3 23:29:01 40° SW 23:31:03 70° WNW 23:36:42 10° NNE
Cosmos 1437 Rocket 4.4 23:30:11 10° NNE 23:33:14 23° ENE 23:33:33 23° ENE
Cosmos 1867 3.5 23:33:44 57° SSE 23:34:31 65° ESE 23:39:57 10° NE
Cosmos 1908 4.1 23:31:18 10° N 23:34:48 39° ENE 23:34:48 39° ENE
Meteor 1-21 4.2 23:34:35 52° S 23:36:02 78° E 23:41:52 10° NNE
Cosmos 1626 3.0 23:37:36 41° ENE 23:37:36 41° ENE 23:40:32 10° NNE
Cosmos 1842 4.2 23:38:57 37° W 23:39:08 37° WNW 23:42:46 10° N
Cosmos 1953 3.7 23:40:47 10° NNE 23:44:19 29° ENE 23:44:46 28° E
USA 215 3.4 23:38:21 10° NE 23:44:53 74° NNW 23:51:00 12° WSW
Cosmos 2278 Rocket 2.9 23:40:33 10° NNW 23:46:03 48° ENE 23:48:51 27° ESE
Cosmos 1674 2.8 23:50:45 68° NNE 23:50:45 68° NNE 23:54:06 10° N
Cosmos 1818 4.4 23:47:45 10° NW 23:52:39 34° WSW 23:52:45 34° WSW
ADEOS Rocket 2.9 23:52:27 51° SSW 23:53:48 68° WSW 23:59:47 10° NNW
Sich 1 Rocket 3.5 23:49:26 10° NNW 23:53:49 71° W 23:54:00 69° WSW
